Location: ??????
(52.6665°N, 53.4797°E)
Time: 06:28:04
(UTC+00:00)

Daily predictions for brighter satellites

Satellite Brightness Start Highest point End
(mag) Time Altitude Azimuth Time Altitude Azimuth Time Altitude Azimuth
ATLAS 2AS CENTAUR R/B 3.4 13:09:35 10° SSW 13:17:08 50° ESE 13:24:35 10° NE
NOAA 12 4.1 13:13:13 10° SSE 13:18:21 62° ENE 13:23:33 10° N
Cosmos 1943 3.5 13:13:19 10° NNW 13:18:50 46° NE 13:24:16 10° ESE
Cosmos 1315 Rocket 3.9 13:17:38 10° N 13:20:51 23° ENE 13:24:06 10° ESE
In-Cosmos 22 4.2 13:15:46 10° S 13:21:11 65° E 13:26:30 10° NNE
Lacrosse 4 Rocket 4.1 13:17:43 10° NW 13:21:32 28° WSW 13:25:21 10° S
CREW DRAGON DEMO-1 DEB 3.3 13:22:41 10° WSW 13:25:31 50° SSE 13:28:21 10° E
Cosmos 2082 Rocket 4.2 13:25:46 10° NNW 13:28:05 12° N 13:30:24 10° NNE
Cosmos 2219 3.6 13:22:22 10° SW 13:28:05 67° NW 13:33:49 10° NNE
Spot 2 4.4 13:23:22 10° SSE 13:28:07 83° WSW 13:32:35 10° NNW
Genesis I 4.2 13:24:58 10° WSW 13:28:36 38° NW 13:32:17 10° NE
Cosmos 1634 Rocket 4.2 13:23:17 10° N 13:29:19 49° ENE 13:35:22 10° SSE
Cosmos 1300 3.6 13:28:23 10° N 13:31:42 27° ENE 13:34:59 10° SE
Abrixas rocket 4.3 13:30:50 10° WSW 13:32:51 19° SSW 13:34:52 10° SSE
Lacrosse 5 2.2 13:29:46 10° WNW 13:34:45 53° N 13:39:43 10° E
Cosmos 773 Rocket 4.5 13:29:57 10° NNW 13:34:46 37° NE 13:39:32 10° ESE
BREEZE-M DEB (TANK) 4.4 13:32:39 10° W 13:38:01 36° SSW 13:40:30 10° SE
Cosmos 1908 3.2 13:35:56 10° N 13:39:49 87° E 13:43:41 10° S
Helios 1A Rocket 4.4 13:41:56 10° E 13:44:43 18° ENE 13:47:30 10° NNE
Cosmos 2227 Rocket 2.7 13:41:11 10° SW 13:46:48 61° NW 13:52:27 10° NNE
Cosmos 1707 4.1 13:45:37 10° SW 13:49:16 40° WNW 13:52:55 10° N
Okean-O 3.6 13:46:14 10° ESE 13:49:49 25° ENE 13:53:26 10° N
AQUARIUS 4.2 13:46:05 10° SSE 13:50:35 86° WSW 13:55:07 10° NNW
SeaSat 1 3.6 13:46:03 10° NNE 13:50:35 38° NW 13:55:08 10° WSW
USA 234 3.4 13:44:39 10° E 13:51:06 63° N 13:57:34 10° WNW
COSMO-SKYMED 1 3.6 13:48:13 10° NE 13:51:53 26° E 13:55:30 10° SSE
CZ-4C R/B 2.2 13:47:22 10° SSW 13:52:23 65° SE 13:58:07 12° NE
Landsat 5 3.3 13:51:28 10° NNE 13:55:32 89° E 13:59:27 10° SSW
Cosmos 1536 Rocket 3.5 13:51:37 10° S 13:55:59 73° E 14:00:24 10° NNE
Tsikada Rocket 4.0 13:50:23 10° S 13:56:43 77° E 14:03:00 10° NNE
SL-24 R/B 4.3 13:53:32 10° S 13:57:51 79° WSW 14:02:28 10° NNW
Okean O Rocket 1.7 13:53:53 10° SSE 13:58:20 83° WSW 14:02:49 10° NNW
RESURS DK-1 2.9 13:57:30 10° S 14:01:22 40° ESE 14:04:23 15° NE
CZ-4B R/B 3.6 13:56:27 10° S 14:01:57 72° WSW 14:07:36 10° NNW
FengYun 1-2 T 4.3 13:56:56 10° SSE 14:02:30 84° WSW 14:08:09 10° NNW
ATLAS 3B R/B 3.2 13:55:58 10° NW 14:02:49 69° SW 14:09:57 10° SSE
Cosmos 1674 2.9 13:59:04 10° SSW 14:02:53 74° WNW 14:06:46 10° N
ERS-2 3.6 14:02:55 17° ENE 14:03:46 19° E 14:06:25 10° SE
Cosmos 2142 Rocket 4.5 13:59:41 10° N 14:05:52 63° ENE 14:11:57 10° SSE
Meteor 2-5 Rocket 3.8 14:01:18 10° S 14:06:41 52° E 14:12:02 10° NNE
Cosmos 1603 3.8 14:01:08 10° NNW 14:06:52 87° WSW 14:12:37 10° SSE
CZ-4C R/B 3.3 14:04:29 10° N 14:07:37 57° WNW 14:10:42 10° SSW
Cosmos 783 Rocket 4.4 14:02:35 10° NNW 14:07:50 78° ENE 14:13:05 10° SSE
CZ-4B R/B 2.0 14:06:18 13° NE 14:08:58 35° E 14:12:06 10° SSE
Cosmos 1354 Rocket 4.3 14:05:31 10° S 14:10:36 48° ESE 14:15:26 11° NE
Cosmos 2297 Rocket 3.4 14:06:38 10° WSW 14:11:54 38° NW 14:17:12 10° NNE
COSMOS 2455 4.2 14:08:06 10° SSE 14:12:15 20° ESE 14:14:03 17° E
IRS-1C Rocket 4.1 14:07:33 10° SE 14:12:41 57° ENE 14:17:51 10° N
TIMED 4.4 14:08:23 10° NNW 14:12:48 83° ENE 14:17:10 10° SSE
Cosmos 1400 Rocket 4.3 14:10:31 10° NNW 14:14:26 42° W 14:18:17 10° SSW
CZ-2D R/B 3.2 14:15:26 10° SSE 14:19:15 64° ENE 14:23:06 10° N
Cosmos 1025 Rocket 4.0 14:15:09 10° SSW 14:19:20 47° WNW 14:23:35 10° N
SL-14 R/B 3.1 14:17:25 10° S 14:21:15 67° E 14:25:09 10° NNE
Cosmos 2082 4.2 14:15:42 10° SW 14:21:21 60° NW 14:27:01 10° NNE
Cosmos 1486 Rocket 4.1 14:16:41 10° SSW 14:21:56 81° WNW 14:27:12 10° NNE
Cosmos 968 Rocket 3.7 14:20:44 10° SSW 14:25:50 72° WNW 14:30:59 10° NNE
CSL-04 Rocket 4.1 14:23:09 10° SE 14:28:05 38° ENE 14:33:06 10° N
Cosmos 1606 Rocket 3.4 14:23:46 10° N 14:28:09 81° E 14:32:33 10° SSE
CZ-2C R/B 3.1 14:23:45 10° SSE 14:28:59 75° ENE 14:34:33 10° NNW
NOSS 3-1 (C) 4.3 14:22:59 10° NW 14:29:27 44° NNE 14:34:17 22° E
H-2A R/B 2.6 14:26:13 10° N 14:30:42 64° WNW 14:35:05 10° SSW
YAOGAN 1 2.7 14:26:57 10° SE 14:31:07 49° ENE 14:35:19 10° N
Cosmos 1892 Rocket 4.0 14:27:39 10° SSE 14:31:40 38° E 14:34:02 21° NE
BREEZE-M DEB (TANK) 2.5 14:30:57 10° WSW 14:33:13 39° S 14:33:36 35° SE
ATLAS 5 CENTAUR R/B 1.8 14:32:25 10° SSW 14:36:19 47° SE 14:37:58 31° ENE
MOS 1 Rocket 3.2 14:33:59 14° NNE 14:37:41 50° E 14:41:51 10° S
Uosat 12 SS-18 rocket 4.5 14:33:14 10° NW 14:38:12 79° NE 14:44:14 10° SE
USA-17 4.3 14:35:36 10° SW 14:39:06 63° SE 14:39:47 47° ENE
Cosmos 1939 Rocket 3.6 14:35:45 10° S 14:39:49 56° W 14:43:53 10° NNW
COSMOS 2406 4.5 14:35:18 10° NNW 14:39:49 23° NNE 14:40:45 22° NE
CZ-4 R/B 4.4 14:36:02 10° SSE 14:40:10 88° WSW 14:44:22 10° NNW
SKYMED 2 3.5 14:35:49 10° NNE 14:40:11 69° ESE 14:44:31 10° S
Meteor 2-10 Rocket 3.6 14:34:55 10° N 14:40:34 65° ENE 14:45:57 10° SSE
CSL-04 DEB 4.5 14:36:34 10° NNE 14:40:53 84° WNW 14:45:03 10° SSW
Cosmos 1626 2.8 14:38:13 10° SSW 14:41:52 55° WNW 14:45:31 10° N
USA 229 4.3 14:38:03 10° NW 14:44:41 43° NNE 14:48:13 27° ENE
USA 229 DEB 4.3 14:38:03 10° NW 14:44:42 43° NNE 14:48:14 27° ENE
CZ-4 R/B 1.3 14:41:25 10° SSE 14:45:32 75° ENE 14:49:36 10° N
OPS 8737 4.3 14:43:31 10° NW 14:46:32 85° SW 14:48:08 30° SE
NOSS 7 (H) 3.9 14:44:06 10° SW 14:47:16 79° SE 14:47:33 69° ENE
Cosmos 1503 Rocket 4.1 14:43:52 10° SSW 14:49:15 82° WNW 14:53:51 15° NNE
Cosmos 2263 Rocket 2.1 14:43:55 10° SSW 14:49:37 83° ESE 14:53:38 20° NNE
NOSS 3-4 (A) 3.9 14:44:25 10° WSW 14:50:20 58° NNW 14:54:37 21° NE
NOSS 3-4 (C) 3.8 14:44:31 10° WSW 14:50:26 59° NNW 14:54:43 21° NE
H-2A R/B 1.8 14:46:08 10° SSE 14:51:03 70° ENE 14:56:09 10° N
Cosmos 2058 Rocket 3.0 14:48:00 10° N 14:52:30 74° ENE 14:57:00 10° SSE
SL-08 RB Rocket 4.1 14:53:03 38° ENE 14:53:03 38° ENE 14:57:06 10° N
Meteor 1-24 Rocket 3.5 14:48:14 10° SSW 14:53:37 89° WNW 14:58:58 10° NNE
Cosmos 2228 3.8 14:49:29 10° NNW 14:53:38 52° W 14:57:46 10° S
USA 267 4.2 14:55:08 25° ESE 14:56:30 27° SE 15:01:53 10° S
Cosmos 1315 Rocket 4.2 14:53:51 10° NNW 14:57:34 40° W 15:01:18 10° SSW
SJ 16-02 3.6 14:54:22 10° SSE 14:54:39 11° SSE 14:54:39 11° SSE
Ariane Rocket 4.4 15:01:38 22° NNE 15:01:38 22° NNE 15:04:06 10° N
Cosmos 923 Rocket 4.2 14:54:51 10° NNW 15:00:03 48° ENE 15:01:30 39° E
NOSS 3-1 (A) 4.3 14:53:36 10° NW 15:00:05 44° NNE 15:03:07 31° ENE
Cosmos 2344 4.2 14:51:57 10° NW 15:00:17 58° NNE 15:06:32 27° E
Okean 1-7 Rocket 3.7 14:56:09 10° SSE 15:00:31 50° E 15:01:10 46° ENE
CREW DRAGON DEMO-1 DEB 3.1 14:57:42 10° W 15:00:13 60° WSW 15:00:13 60° WSW
SAR-Lupe-4 3.9 15:04:15 50° SSE 15:04:15 50° SSE 15:07:08 10° S
Meteor 2-13 Rocket 4.5 14:58:19 10° SSE 15:04:11 52° E 15:10:09 10° NNE
Cosmos 2279 Rocket 4.5 14:59:02 10° NNW 15:05:14 62° W 15:11:22 10° S
Cosmos 1455 3.6 15:01:30 10° N 15:03:19 26° N 15:03:19 26° N
Aureole 3 4.1 15:03:33 10° N 15:06:18 36° N 15:06:18 36° N
ATLAS 2AS CENTAUR R/B 3.3 15:00:12 10° WSW 15:08:07 65° NW 15:13:09 24° NE
Cosmos 1680 Rocket 3.8 15:03:36 10° NNW 15:08:40 44° NE 15:08:49 44° ENE
USA 281 4.0 15:08:20 30° NE 15:08:56 31° NE 15:14:29 10° NNW
ARGOS 3.0 15:06:40 10° SSE 15:12:00 76° ENE 15:17:24 10° NNW
CSL-04 Debris 4.0 15:07:32 10° SSE 15:12:56 80° ENE 15:18:21 10° NNW
Meteor 1-21 Rocket 4.5 15:08:29 10° SSE 15:13:08 43° ESE 15:13:08 43° ESE
Cosmos 2082 Rocket 3.7 15:10:14 10° NNW 15:14:02 21° NNE 15:14:02 21° NNE
GENESIS II 4.1 15:12:50 10° SW 15:16:47 81° SSE 15:16:47 81° SSE
SJ-11-01 4.3 15:12:18 10° SSE 15:17:01 79° WSW 15:21:44 10° NNW
CZ-2C R/B 3.9 15:20:10 27° SE 15:20:10 27° SE 15:22:58 10° SSE
Lacrosse 5 1.8 15:12:58 10° WNW 15:18:03 86° SSW 15:19:14 54° SE
Helios 1A Rocket 3.1 15:15:17 10° S 15:19:24 71° WSW 15:23:35 10° NNW
Cosmos 1833 Rocket 3.7 15:14:56 10° NNW 15:19:04 28° NNE 15:19:04 28° NNE
Okean-O 3.4 15:21:44 10° S 15:26:03 51° W 15:30:25 10° NNW
COSMO-SKYMED 1 3.6 15:24:22 12° N 15:28:14 44° WNW 15:32:21 10° SW
Cosmos 158 Rocket 3.9 15:25:07 10° NNW 15:30:27 82° ENE 15:31:39 55° SE
Cosmos 2227 Rocket 4.3 15:27:56 10° WNW 15:32:03 20° NNW 15:35:31 12° NNE
USA 234 3.2 15:31:45 46° ESE 15:33:59 90° SSW 15:40:36 10° WNW
ERS-2 3.1 15:37:29 44° WNW 15:37:32 44° WNW 15:41:00 10° SW
RESURS DK-1 3.8 15:35:43 10° WSW 15:39:29 33° NW 15:40:18 30° NNW
CZ-4B R/B 3.9 15:39:24 16° NNW 15:41:00 21° WNW 15:43:38 10° WSW
CZ-4C R/B 3.1 15:36:01 10° W 15:41:14 44° NNW 15:43:20 33° NNE
Meteor 2-1 Rocket 4.4 15:36:01 10° NNW 15:41:37 69° W 15:47:06 10° S
Cosmos 2112 Rocket 4.3 15:39:55 10° NNW 15:44:10 54° N 15:44:10 54° N
Cosmos 1844 Rocket 3.3 15:39:55 10° S 15:43:45 41° SSE 15:43:45 41° SSE
Meteor 2-8 Rocket 4.2 15:40:47 10° N 15:46:53 78° ENE 15:47:57 61° SE
Cosmos 1092 Rocket 3.8 15:41:34 10° S 15:55:26 - NNE 15:47:38 70° ESE
Cosmos 1777 Rocket 4.3 15:47:17 10° SW 15:52:31 65° WNW 15:53:29 54° N
Iridium 4 Rocket 3.6 15:49:19 10° N 15:55:14 88° W 15:55:45 75° S
COSMOS 2455 2.7 15:51:19 10° SSW 15:57:14 83° SSE 15:57:14 83° SSE
Cosmos 2297 Rocket 4.4 15:54:22 10° NW 15:57:39 15° NNW 15:59:51 13° N
Nadezhda 4 Rocket 4.5 16:02:28 10° SSW 16:08:38 58° WNW 16:14:47 10° N
ATLAS 5 CENTAUR R/B 3.3 16:16:59 10° W 16:19:31 30° WNW 16:19:31 30° WNW
CZ-4 R/B 4.5 16:18:47 10° WSW 16:21:03 14° W 16:23:17 10° NW
NOSS 3-1 (C) 3.9 16:13:52 10° NW 16:21:06 87° SW 16:21:43 78° SSE
COSMOS 2406 4.3 16:19:21 10° NNW 16:22:49 37° NNW 16:22:49 37° NNW
H-2A R/B 4.4 16:27:24 10° SW 16:31:03 20° W 16:34:47 10° NW
Cosmos 2263 Rocket 3.8 16:29:24 10° W 16:34:13 27° NW 16:35:22 26° NNW
CZ-3B R/B 4.3 16:31:43 10° W 16:32:50 21° W 16:32:50 21° W
USA 229 3.9 16:29:12 10° NW 16:35:41 75° NW 16:35:41 75° NW
USA 229 DEB 3.9 16:29:12 10° NW 16:35:42 75° NW 16:35:42 75° NW
USA 267 4.0 16:42:30 44° SW 16:42:30 44° SW 16:46:49 10° SW
NOSS 3-1 (A) 4.1 16:44:32 10° NW 16:50:35 67° NW 16:50:35 67° NW
USA 281 4.0 16:55:12 44° NNW 16:55:12 44° NNW 16:59:28 10° NNW
Cosmos 2082 Rocket 4.2 16:54:02 10° NNW 16:55:54 21° NNW 16:55:54 21° NNW
ATLAS 2AS CENTAUR R/B 3.9 16:53:11 10° WNW 17:00:27 38° N 17:00:35 38° N
Lacrosse 5 4.2 16:56:22 10° WNW 16:58:27 20° W 16:58:27 20° W
Cosmos 2344 4.4 17:06:20 10° NW 17:15:22 65° SW 17:16:37 62° SSW
USA 234 4.5 17:19:06 35° WSW 17:19:06 35° WSW 17:23:36 10° WNW
CZ-4C R/B 4.4 17:25:53 10° WNW 17:28:31 23° NW 17:28:31 23° NW
Cosmos 2322 Rocket 4.5 23:44:06 20° ENE 23:44:06 20° ENE 23:46:08 10° NE
